Time,TemperatureF,DewpointF,PressureIn,WindDirection,WindDirectionDegrees,WindSpeedMPH,WindSpeedGustMPH,Humidity,HourlyPrecipIn,Conditions,Clouds,dailyrainin,SoftwareType,DateUTC
2013-07-02 00:02:00,75.2,58.0,30.07,WNW,293,1.3,1.3,55,0.00,,,0.00,WUHU216HW,2013-07-02 05:02:00,
2013-07-02 00:07:00,75.2,58.0,30.07,WNW,293,1.3,1.3,55,0.00,,,0.00,WUHU216HW,2013-07-02 05:07:00,
2013-07-02 00:12:00,75.2,58.0,30.07,WNW,293,1.3,1.6,55,0.00,,,0.00,WUHU216HW,2013-07-02 05:12:00,
2013-07-02 00:17:00,75.2,58.0,30.07,NNW,338,1.1,1.6,55,0.00,,,0.00,WUHU216HW,2013-07-02 05:17:00,
2013-07-02 00:22:00,75.2,58.0,30.07,NW,315,1.3,1.6,55,0.00,,,0.00,WUHU216HW,2013-07-02 05:22:00,
2013-07-02 00:27:00,75.4,58.2,30.08,NW,315,1.3,1.8,55,0.00,,,0.00,WUHU216HW,2013-07-02 05:27:00,
2013-07-02 00:32:00,75.4,57.6,30.07,NNW,338,1.1,1.8,54,0.00,,,0.00,WUHU216HW,2013-07-02 05:32:00,
2013-07-02 00:37:00,75.6,57.8,30.07,NW,315,1.1,1.3,54,0.00,,,0.00,WUHU216HW,2013-07-02 05:37:00,
2013-07-02 00:42:00,75.6,58.3,30.07,NW,315,1.3,1.3,55,0.00,,,0.00,WUHU216HW,2013-07-02 05:42:00,
2013-07-02 00:47:00,75.4,58.2,30.07,NW,315,2.0,2.0,55,0.00,,,0.00,WUHU216HW,2013-07-02 05:47:00,
2013-07-02 00:52:00,75.2,58.0,30.07,NW,315,1.8,2.2,55,0.00,,,0.00,WUHU216HW,2013-07-02 05:52:00,
2013-07-02 00:57:00,75.2,58.0,30.07,NW,315,1.6,2.2,55,0.00,,,0.00,WUHU216HW,2013-07-02 05:57:00,
2013-07-02 01:02:00,75.1,57.8,30.07,NW,315,1.3,2.2,55,0.00,,,0.00,WUHU216HW,2013-07-02 06:02:00,
2013-07-02 01:07:00,75.1,57.8,30.07,NW,315,1.3,2.0,55,0.00,,,0.00,WUHU216HW,2013-07-02 06:07:00,
2013-07-02 01:12:00,75.1,58.3,30.07,NW,315,1.1,2.0,56,0.00,,,0.00,WUHU216HW,2013-07-02 06:12:00,
2013-07-02 01:17:00,75.1,58.3,30.07,NW,315,1.8,1.8,56,0.00,,,0.00,WUHU216HW,2013-07-02 06:17:00,
2013-07-02 01:22:00,74.9,58.2,30.07,NNW,338,1.1,2.2,56,0.00,,,0.00,WUHU216HW,2013-07-02 06:22:00,
2013-07-02 01:27:00,74.9,58.2,30.07,WNW,293,1.1,2.2,56,0.00,,,0.00,WUHU216HW,2013-07-02 06:27:00,
2013-07-02 01:32:00,74.7,58.4,30.07,WNW,293,1.8,2.0,57,0.00,,,0.00,WUHU216HW,2013-07-02 06:32:00,
2013-07-02 01:37:00,74.5,58.2,30.07,NW,315,1.8,2.0,57,0.00,,,0.00,WUHU216HW,2013-07-02 06:37:00,
2013-07-02 01:42:00,74.5,58.8,30.07,NW,315,1.1,1.8,58,0.00,,,0.00,WUHU216HW,2013-07-02 06:42:00,
2013-07-02 01:47:00,74.3,58.6,30.07,NW,315,1.1,1.8,58,0.00,,,0.00,WUHU216HW,2013-07-02 06:47:00,
2013-07-02 01:52:00,74.3,58.6,30.07,NW,315,2.2,2.2,58,0.00,,,0.00,WUHU216HW,2013-07-02 06:52:00,
2013-07-02 01:57:00,74.2,58.4,30.07,NW,315,1.8,2.2,58,0.00,,,0.00,WUHU216HW,2013-07-02 06:57:00,
2013-07-02 02:02:00,74.0,58.2,30.07,North,0,1.6,2.0,58,0.00,,,0.00,WUHU216HW,2013-07-02 07:02:00,
2013-07-02 02:07:00,73.8,58.5,30.07,NW,315,0.9,1.8,59,0.00,,,0.00,WUHU216HW,2013-07-02 07:07:00,
2013-07-02 02:12:00,73.6,58.3,30.07,North,0,1.6,1.6,59,0.00,,,0.00,WUHU216HW,2013-07-02 07:12:00,
2013-07-02 02:17:00,73.6,58.3,30.07,North,0,1.1,1.6,59,0.01,,,0.01,WUHU216HW,2013-07-02 07:17:00,
2013-07-02 02:22:00,73.4,57.7,30.07,NNW,338,1.3,1.6,58,0.01,,,0.01,WUHU216HW,2013-07-02 07:22:00,
2013-07-02 02:27:00,73.4,58.1,30.06,NW,315,1.1,2.2,59,0.01,,,0.01,WUHU216HW,2013-07-02 07:27:00,
2013-07-02 02:32:00,73.3,58.5,30.06,NW,315,1.1,2.2,60,0.01,,,0.01,WUHU216HW,2013-07-02 07:32:00,
2013-07-02 02:37:00,73.1,58.3,30.07,NNW,338,1.1,1.6,60,0.01,,,0.01,WUHU216HW,2013-07-02 07:37:00,
2013-07-02 02:42:00,73.1,58.8,30.06,NW,315,1.1,1.3,61,0.01,,,0.01,WUHU216HW,2013-07-02 07:42:00,
2013-07-02 02:47:00,72.9,58.7,30.06,NW,315,0.7,1.3,61,0.01,,,0.01,WUHU216HW,2013-07-02 07:47:00,
2013-07-02 02:52:00,72.7,58.5,30.06,WNW,293,1.1,1.3,61,0.01,,,0.01,WUHU216HW,2013-07-02 07:52:00,
2013-07-02 02:57:00,72.4,58.6,30.06,NW,315,0.7,1.1,62,0.01,,,0.01,WUHU216HW,2013-07-02 07:57:00,
2013-07-02 03:02:00,72.0,58.7,30.06,NE,45,0.0,0.9,63,0.01,,,0.01,WUHU216HW,2013-07-02 08:02:00,
2013-07-02 03:07:00,71.5,58.2,30.06,NE,45,0.0,0.0,63,0.01,,,0.01,WUHU216HW,2013-07-02 08:07:00,
2013-07-02 03:12:00,71.1,58.3,30.06,NW,315,1.1,1.1,64,0.00,,,0.01,WUHU216HW,2013-07-02 08:12:00,
2013-07-02 03:17:00,70.9,58.5,30.07,WNW,293,0.7,1.1,65,0.00,,,0.01,WUHU216HW,2013-07-02 08:17:00,
2013-07-02 03:22:00,70.6,58.2,30.07,WNW,293,0.9,1.1,65,0.00,,,0.01,WUHU216HW,2013-07-02 08:22:00,
2013-07-02 03:27:00,70.4,58.1,30.06,WNW,293,0.9,1.1,65,0.00,,,0.01,WUHU216HW,2013-07-02 08:27:00,
2013-07-02 03:32:00,70.2,57.9,30.06,WNW,293,0.0,1.1,65,0.00,,,0.01,WUHU216HW,2013-07-02 08:32:00,
2013-07-02 03:37:00,69.8,57.5,30.06,WNW,293,0.0,1.1,65,0.00,,,0.01,WUHU216HW,2013-07-02 08:37:00,
2013-07-02 03:42:00,69.5,57.6,30.06,WNW,293,0.0,0.0,66,0.00,,,0.01,WUHU216HW,2013-07-02 08:42:00,
2013-07-02 03:47:00,69.1,57.7,30.06,WNW,293,0.0,0.0,67,0.00,,,0.01,WUHU216HW,2013-07-02 08:47:00,
2013-07-02 03:52:00,68.6,57.6,30.07,WNW,293,0.0,0.0,68,0.00,,,0.01,WUHU216HW,2013-07-02 08:52:00,
2013-07-02 03:57:00,68.2,57.7,30.06,WNW,293,0.0,0.0,69,0.00,,,0.01,WUHU216HW,2013-07-02 08:57:00,
2013-07-02 04:02:00,68.4,57.9,30.06,WNW,293,0.0,0.0,69,0.00,,,0.01,WUHU216HW,2013-07-02 09:02:00,
2013-07-02 04:07:00,68.4,57.9,30.07,WNW,293,0.0,0.0,69,0.00,,,0.01,WUHU216HW,2013-07-02 09:07:00,
2013-07-02 04:12:00,68.0,58.0,30.06,WNW,293,0.0,0.0,70,0.00,,,0.01,WUHU216HW,2013-07-02 09:12:00,
2013-07-02 04:17:00,67.9,57.8,30.07,WNW,293,0.0,0.0,70,0.00,,,0.01,WUHU216HW,2013-07-02 09:17:00,
2013-07-02 04:22:00,67.7,57.6,30.07,NW,315,0.0,0.0,70,0.00,,,0.01,WUHU216HW,2013-07-02 09:22:00,
2013-07-02 04:27:00,67.7,57.2,30.08,NNW,338,0.9,1.3,69,0.00,,,0.01,WUHU216HW,2013-07-02 09:27:00,
2013-07-02 04:32:00,67.7,56.7,30.08,WNW,293,0.9,1.3,68,0.00,,,0.01,WUHU216HW,2013-07-02 09:32:00,
2013-07-02 04:37:00,67.7,57.2,30.08,NNW,338,0.7,1.1,69,0.00,,,0.01,WUHU216HW,2013-07-02 09:37:00,
2013-07-02 04:42:00,67.7,57.2,30.08,SSW,203,0.0,1.1,69,0.00,,,0.01,WUHU216HW,2013-07-02 09:42:00,
2013-07-02 04:47:00,67.3,56.8,30.08,SSW,203,0.0,1.1,69,0.00,,,0.01,WUHU216HW,2013-07-02 09:47:00,
2013-07-02 04:52:00,67.1,56.6,30.08,NW,315,0.0,0.4,69,0.00,,,0.01,WUHU216HW,2013-07-02 09:52:00,
2013-07-02 04:57:00,67.1,56.3,30.08,WNW,293,1.8,1.8,68,0.00,,,0.01,WUHU216HW,2013-07-02 09:57:00,
2013-07-02 05:02:00,67.3,56.4,30.08,NNW,338,1.1,1.8,68,0.01,,,0.01,WUHU216HW,2013-07-02 10:02:00,
2013-07-02 05:07:00,67.3,56.0,30.08,NW,315,0.9,1.3,67,0.01,,,0.02,WUHU216HW,2013-07-02 10:07:00,
2013-07-02 05:12:00,67.7,56.4,30.08,NW,315,0.9,1.8,67,0.02,,,0.03,WUHU216HW,2013-07-02 10:12:00,
2013-07-02 05:17:00,67.7,55.9,30.08,NW,315,0.4,1.8,66,0.02,,,0.03,WUHU216HW,2013-07-02 10:17:00,
2013-07-02 05:22:00,67.9,56.1,30.09,NW,315,0.0,0.9,66,0.04,,,0.05,WUHU216HW,2013-07-02 10:22:00,
2013-07-02 05:27:00,67.9,56.5,30.09,WNW,293,0.0,1.1,67,0.04,,,0.05,WUHU216HW,2013-07-02 10:27:00,
2013-07-02 05:32:00,67.7,56.7,30.09,WSW,248,0.0,1.1,68,0.04,,,0.05,WUHU216HW,2013-07-02 10:32:00,
2013-07-02 05:37:00,67.5,57.4,30.09,WSW,248,0.0,0.4,70,0.04,,,0.05,WUHU216HW,2013-07-02 10:37:00,
2013-07-02 05:42:00,67.3,57.2,30.09,WSW,248,0.0,0.0,70,0.04,,,0.05,WUHU216HW,2013-07-02 10:42:00,
2013-07-02 05:47:00,67.1,56.3,30.09,WSW,248,0.0,0.0,68,0.04,,,0.05,WUHU216HW,2013-07-02 10:47:00,
2013-07-02 05:52:00,66.8,56.3,30.09,WSW,248,0.0,0.0,69,0.04,,,0.05,WUHU216HW,2013-07-02 10:52:00,
2013-07-02 05:57:00,66.6,56.1,30.09,WSW,248,0.0,0.0,69,0.04,,,0.05,WUHU216HW,2013-07-02 10:57:00,
2013-07-02 06:02:00,66.4,55.9,30.10,NW,315,0.7,0.7,69,0.03,,,0.05,WUHU216HW,2013-07-02 11:02:00,
2013-07-02 06:07:00,66.2,56.2,30.10,NW,315,0.7,0.9,70,0.02,,,0.05,WUHU216HW,2013-07-02 11:07:00,
2013-07-02 06:12:00,65.9,55.8,30.10,NW,315,0.0,0.9,70,0.02,,,0.05,WUHU216HW,2013-07-02 11:12:00,
2013-07-02 06:17:00,65.9,55.8,30.10,NW,315,0.0,0.0,70,0.00,,,0.05,WUHU216HW,2013-07-02 11:17:00,
2013-07-02 06:22:00,65.9,55.8,30.10,WNW,293,0.0,0.0,70,0.00,,,0.05,WUHU216HW,2013-07-02 11:22:00,
2013-07-02 06:27:00,65.9,55.8,30.10,NW,315,0.4,0.9,70,0.00,,,0.05,WUHU216HW,2013-07-02 11:27:00,
2013-07-02 06:32:00,65.9,55.5,30.10,WNW,293,1.3,1.3,69,0.00,,,0.05,WUHU216HW,2013-07-02 11:32:00,
2013-07-02 06:37:00,66.1,55.6,30.10,WNW,293,1.3,1.6,69,0.00,,,0.05,WUHU216HW,2013-07-02 11:37:00,
2013-07-02 06:42:00,66.1,55.6,30.10,WNW,293,1.3,1.8,69,0.00,,,0.05,WUHU216HW,2013-07-02 11:42:00,
2013-07-02 06:47:00,66.1,55.6,30.10,WNW,293,0.0,1.8,69,0.00,,,0.05,WUHU216HW,2013-07-02 11:47:00,
2013-07-02 06:52:00,66.1,55.6,30.11,WNW,293,0.0,0.7,69,0.00,,,0.05,WUHU216HW,2013-07-02 11:52:00,
2013-07-02 06:57:00,66.2,55.7,30.11,WNW,293,0.0,0.7,69,0.00,,,0.05,WUHU216HW,2013-07-02 11:57:00,
2013-07-02 07:02:00,66.2,55.4,30.11,WNW,293,0.0,0.0,68,0.00,,,0.05,WUHU216HW,2013-07-02 12:02:00,
2013-07-02 07:07:00,66.2,55.4,30.11,WNW,293,1.3,1.3,68,0.00,,,0.05,WUHU216HW,2013-07-02 12:07:00,
2013-07-02 07:12:00,66.1,55.2,30.11,WNW,293,0.4,1.3,68,0.00,,,0.05,WUHU216HW,2013-07-02 12:12:00,
2013-07-02 07:17:00,66.2,55.4,30.11,WNW,293,1.6,1.6,68,0.00,,,0.05,WUHU216HW,2013-07-02 12:17:00,
2013-07-02 07:22:00,66.6,55.3,30.11,WNW,293,1.1,1.8,67,0.00,,,0.05,WUHU216HW,2013-07-02 12:22:00,
2013-07-02 07:27:00,67.1,55.4,30.11,NW,315,2.2,2.2,66,0.00,,,0.05,WUHU216HW,2013-07-02 12:27:00,
2013-07-02 07:32:00,67.7,55.4,30.11,WNW,293,3.4,3.4,65,0.00,,,0.05,WUHU216HW,2013-07-02 12:32:00,
2013-07-02 07:37:00,68.0,55.8,30.12,NW,315,2.9,3.4,65,0.00,,,0.05,WUHU216HW,2013-07-02 12:37:00,
2013-07-02 07:42:00,68.6,56.4,30.12,WNW,293,2.2,4.0,65,0.00,,,0.05,WUHU216HW,2013-07-02 12:42:00,
2013-07-02 07:47:00,68.9,56.3,30.12,NW,315,1.8,4.0,64,0.00,,,0.05,WUHU216HW,2013-07-02 12:47:00,
2013-07-02 07:52:00,69.5,56.8,30.12,NW,315,1.8,3.6,64,0.00,,,0.05,WUHU216HW,2013-07-02 12:52:00,
2013-07-02 07:57:00,69.8,56.7,30.12,NNW,338,3.4,4.9,63,0.00,,,0.05,WUHU216HW,2013-07-02 12:57:00,
2013-07-02 08:02:00,70.4,56.8,30.12,NW,315,2.7,4.9,62,0.00,,,0.05,WUHU216HW,2013-07-02 13:02:00,
2013-07-02 08:07:00,70.9,57.2,30.13,NNW,338,1.1,3.1,62,0.00,,,0.05,WUHU216HW,2013-07-02 13:07:00,
2013-07-02 08:12:00,71.5,58.2,30.13,WNW,293,4.0,4.0,63,0.00,,,0.05,WUHU216HW,2013-07-02 13:12:00,
2013-07-02 08:17:00,72.2,58.4,30.13,NW,315,2.5,4.0,62,0.00,,,0.05,WUHU216HW,2013-07-02 13:17:00,
2013-07-02 08:22:00,72.7,59.0,30.13,NNW,338,2.7,3.4,62,0.00,,,0.05,WUHU216HW,2013-07-02 13:22:00,
2013-07-02 08:27:00,73.4,59.6,30.13,WNW,293,2.5,3.6,62,0.00,,,0.05,WUHU216HW,2013-07-02 13:27:00,
2013-07-02 08:32:00,73.8,59.0,30.13,WNW,293,4.0,4.0,60,0.00,,,0.05,WUHU216HW,2013-07-02 13:32:00,
2013-07-02 08:37:00,74.3,59.6,30.13,NNW,338,3.1,4.0,60,0.01,,,0.06,WUHU216HW,2013-07-02 13:37:00,
2013-07-02 08:42:00,74.9,59.6,30.13,North,0,3.4,4.0,59,0.01,,,0.06,WUHU216HW,2013-07-02 13:42:00,
2013-07-02 08:47:00,75.4,59.7,30.13,North,0,1.8,3.8,58,0.01,,,0.06,WUHU216HW,2013-07-02 13:47:00,
2013-07-02 08:52:00,76.0,59.6,30.13,NW,315,2.2,4.7,57,0.01,,,0.06,WUHU216HW,2013-07-02 13:52:00,
2013-07-02 08:57:00,76.3,59.4,30.13,NNW,338,4.0,5.1,56,0.01,,,0.06,WUHU216HW,2013-07-02 13:57:00,
2013-07-02 09:02:00,76.7,59.8,30.13,West,270,3.1,5.1,56,0.01,,,0.06,WUHU216HW,2013-07-02 14:02:00,
2013-07-02 09:07:00,76.9,60.0,30.13,NNW,338,3.1,4.5,56,0.01,,,0.06,WUHU216HW,2013-07-02 14:07:00,
2013-07-02 09:12:00,77.2,60.3,30.13,WNW,293,1.1,3.6,56,0.01,,,0.06,WUHU216HW,2013-07-02 14:12:00,
2013-07-02 09:17:00,77.6,59.6,30.13,NW,315,3.4,5.1,54,0.01,,,0.06,WUHU216HW,2013-07-02 14:17:00,
2013-07-02 09:22:00,77.9,60.0,30.13,NNW,338,2.5,5.1,54,0.01,,,0.06,WUHU216HW,2013-07-02 14:22:00,
2013-07-02 09:27:00,78.1,59.0,30.13,North,0,3.6,6.3,52,0.01,,,0.06,WUHU216HW,2013-07-02 14:27:00,
2013-07-02 09:32:00,78.3,59.2,30.13,NW,315,5.1,6.3,52,0.01,,,0.06,WUHU216HW,2013-07-02 14:32:00,
2013-07-02 09:37:00,78.7,59.6,30.13,North,0,3.4,5.4,52,0.00,,,0.06,WUHU216HW,2013-07-02 14:37:00,
2013-07-02 09:42:00,78.7,57.9,30.13,NNW,338,4.0,6.7,49,0.00,,,0.06,WUHU216HW,2013-07-02 14:42:00,
2013-07-02 09:47:00,78.7,58.5,30.13,North,0,4.5,6.7,50,0.00,,,0.06,WUHU216HW,2013-07-02 14:47:00,
2013-07-02 09:52:00,79.2,58.4,30.13,North,0,3.1,4.5,49,0.00,,,0.06,WUHU216HW,2013-07-02 14:52:00,
2013-07-02 09:57:00,79.6,57.5,30.13,NNW,338,1.6,4.0,47,0.00,,,0.06,WUHU216HW,2013-07-02 14:57:00,
2013-07-02 10:02:00,79.9,57.3,30.13,East,90,2.0,3.6,46,0.00,,,0.06,WUHU216HW,2013-07-02 15:02:00,
2013-07-02 10:07:00,79.9,57.8,30.13,NW,315,3.8,4.0,47,0.00,,,0.06,WUHU216HW,2013-07-02 15:07:00,
2013-07-02 10:12:00,80.3,58.1,30.13,NNW,338,5.4,5.4,47,0.00,,,0.06,WUHU216HW,2013-07-02 15:12:00,
2013-07-02 10:17:00,80.6,56.6,30.13,North,0,4.0,5.4,44,0.00,,,0.06,WUHU216HW,2013-07-02 15:17:00,
2013-07-02 10:22:00,80.6,56.6,30.13,North,0,2.5,5.4,44,0.00,,,0.06,WUHU216HW,2013-07-02 15:22:00,
2013-07-02 10:27:00,80.8,56.2,30.13,NNE,23,4.9,5.4,43,0.00,,,0.06,WUHU216HW,2013-07-02 15:27:00,
2013-07-02 10:32:00,81.0,57.0,30.13,NW,315,3.4,5.1,44,0.00,,,0.06,WUHU216HW,2013-07-02 15:32:00,
2013-07-02 10:37:00,81.7,57.0,30.13,North,0,5.4,5.4,43,0.00,,,0.06,WUHU216HW,2013-07-02 15:37:00,
2013-07-02 10:42:00,82.3,56.9,30.13,NW,315,4.9,5.4,42,0.00,,,0.06,WUHU216HW,2013-07-02 15:42:00,
2013-07-02 10:47:00,82.8,56.2,30.13,NW,315,5.8,7.6,40,0.00,,,0.06,WUHU216HW,2013-07-02 15:47:00,
2013-07-02 10:52:00,83.3,57.3,30.13,NW,315,6.0,7.6,41,0.00,,,0.06,WUHU216HW,2013-07-02 15:52:00,
2013-07-02 10:57:00,83.7,56.2,30.13,NE,45,2.5,6.5,39,0.00,,,0.06,WUHU216HW,2013-07-02 15:57:00,
2013-07-02 11:02:00,83.5,56.0,30.13,North,0,2.7,6.5,39,0.00,,,0.06,WUHU216HW,2013-07-02 16:02:00,
2013-07-02 11:07:00,83.3,55.0,30.13,North,0,3.4,5.1,38,0.00,,,0.06,WUHU216HW,2013-07-02 16:07:00,
2013-07-02 11:12:00,83.7,56.2,30.13,NW,315,3.4,5.1,39,0.00,,,0.06,WUHU216HW,2013-07-02 16:12:00,
2013-07-02 11:17:00,84.1,53.3,30.14,North,0,4.5,6.3,35,0.00,,,0.06,WUHU216HW,2013-07-02 16:17:00,
2013-07-02 11:22:00,83.9,55.5,30.14,SE,135,2.5,6.3,38,0.00,,,0.06,WUHU216HW,2013-07-02 16:22:00,
2013-07-02 11:27:00,84.2,56.6,30.14,North,0,4.9,4.9,39,0.00,,,0.06,WUHU216HW,2013-07-02 16:27:00,
2013-07-02 11:32:00,84.4,56.0,30.14,NNW,338,4.7,4.9,38,0.00,,,0.06,WUHU216HW,2013-07-02 16:32:00,
2013-07-02 11:37:00,84.2,52.7,30.14,NE,45,2.7,4.7,34,0.00,,,0.06,WUHU216HW,2013-07-02 16:37:00,
2013-07-02 11:42:00,84.1,53.3,30.14,NW,315,3.6,7.6,35,0.00,,,0.06,WUHU216HW,2013-07-02 16:42:00,
2013-07-02 11:47:00,84.2,51.8,30.14,West,270,1.8,7.6,33,0.00,,,0.06,WUHU216HW,2013-07-02 16:47:00,
2013-07-02 11:52:00,84.6,55.4,30.13,NNE,23,4.9,6.3,37,0.00,,,0.06,WUHU216HW,2013-07-02 16:52:00,
2013-07-02 11:57:00,85.0,52.6,30.13,WSW,248,1.1,6.0,33,0.00,,,0.06,WUHU216HW,2013-07-02 16:57:00,
2013-07-02 12:02:00,84.8,51.6,30.13,NNW,338,6.7,6.7,32,0.00,,,0.06,WUHU216HW,2013-07-02 17:02:00,
2013-07-02 12:07:00,85.0,51.8,30.13,WNW,293,1.3,7.6,32,0.00,,,0.06,WUHU216HW,2013-07-02 17:07:00,
2013-07-02 12:12:00,85.5,53.0,30.13,NNW,338,2.5,7.6,33,0.00,,,0.06,WUHU216HW,2013-07-02 17:12:00,
2013-07-02 12:17:00,85.3,51.3,30.13,NNE,23,1.8,5.6,31,0.00,,,0.06,WUHU216HW,2013-07-02 17:17:00,
2013-07-02 12:22:00,85.3,51.3,30.12,NNE,23,2.2,5.1,31,0.00,,,0.06,WUHU216HW,2013-07-02 17:22:00,
2013-07-02 12:27:00,85.3,52.8,30.13,NW,315,6.3,6.9,33,0.00,,,0.06,WUHU216HW,2013-07-02 17:27:00,
2013-07-02 12:32:00,85.5,47.4,30.12,NE,45,5.1,6.9,27,0.00,,,0.06,WUHU216HW,2013-07-02 17:32:00,
2013-07-02 12:37:00,84.8,50.0,30.12,NNE,23,4.3,5.8,30,0.00,,,0.06,WUHU216HW,2013-07-02 17:37:00,
2013-07-02 12:42:00,85.0,50.9,30.12,NNE,23,9.8,9.8,31,0.00,,,0.06,WUHU216HW,2013-07-02 17:42:00,
2013-07-02 12:47:00,85.1,50.3,30.12,NNE,23,5.6,9.8,30,0.00,,,0.06,WUHU216HW,2013-07-02 17:47:00,
2013-07-02 12:52:00,85.3,52.0,30.12,North,0,7.6,9.2,32,0.00,,,0.06,WUHU216HW,2013-07-02 17:52:00,
2013-07-02 12:57:00,85.7,51.6,30.12,NE,45,2.7,9.2,31,0.00,,,0.06,WUHU216HW,2013-07-02 17:57:00,
2013-07-02 13:02:00,86.0,52.8,30.12,North,0,4.0,6.9,32,0.00,,,0.06,WUHU216HW,2013-07-02 18:02:00,
2013-07-02 13:07:00,86.4,52.2,30.12,NW,315,4.9,6.9,31,0.00,,,0.06,WUHU216HW,2013-07-02 18:07:00,
2013-07-02 13:12:00,86.4,53.8,30.12,NW,315,8.5,8.5,33,0.00,,,0.06,WUHU216HW,2013-07-02 18:12:00,
2013-07-02 13:17:00,86.8,54.1,30.11,North,0,2.9,8.5,33,0.00,,,0.06,WUHU216HW,2013-07-02 18:17:00,
2013-07-02 13:22:00,86.6,53.2,30.11,NNW,338,3.8,8.5,32,0.00,,,0.06,WUHU216HW,2013-07-02 18:22:00,
2013-07-02 13:27:00,86.6,53.9,30.11,East,90,5.4,6.9,33,0.00,,,0.06,WUHU216HW,2013-07-02 18:27:00,
2013-07-02 13:32:00,86.8,55.7,30.11,ESE,113,6.0,6.9,35,0.00,,,0.06,WUHU216HW,2013-07-02 18:32:00,
2013-07-02 13:37:00,86.9,54.3,30.11,North,0,4.5,9.2,33,0.00,,,0.06,WUHU216HW,2013-07-02 18:37:00,
2013-07-02 13:42:00,87.5,53.9,30.11,North,0,4.3,9.2,32,0.00,,,0.06,WUHU216HW,2013-07-02 18:42:00,
2013-07-02 13:47:00,88.0,54.4,30.10,NNE,23,4.9,6.9,32,0.00,,,0.06,WUHU216HW,2013-07-02 18:47:00,
2013-07-02 13:52:00,87.7,54.0,30.10,ENE,68,3.4,6.7,32,0.00,,,0.06,WUHU216HW,2013-07-02 18:52:00,
2013-07-02 13:57:00,87.3,53.7,30.10,NE,45,2.2,6.3,32,0.00,,,0.06,WUHU216HW,2013-07-02 18:57:00,
2013-07-02 14:02:00,86.2,54.5,30.10,NW,315,4.3,4.9,34,0.00,,,0.06,WUHU216HW,2013-07-02 19:02:00,
2013-07-02 14:07:00,86.6,55.5,30.10,North,0,7.4,7.4,35,0.00,,,0.06,WUHU216HW,2013-07-02 19:07:00,
2013-07-02 14:12:00,87.1,56.0,30.10,NW,315,5.1,7.4,35,0.00,,,0.06,WUHU216HW,2013-07-02 19:12:00,
2013-07-02 14:17:00,87.8,55.0,30.10,NNE,23,4.3,7.8,33,0.00,,,0.06,WUHU216HW,2013-07-02 19:17:00,
2013-07-02 14:22:00,87.7,54.0,30.09,NNW,338,3.6,7.8,32,0.00,,,0.06,WUHU216HW,2013-07-02 19:22:00,
2013-07-02 14:27:00,87.5,53.9,30.10,North,0,4.0,4.5,32,0.00,,,0.06,WUHU216HW,2013-07-02 19:27:00,
2013-07-02 14:32:00,87.1,52.0,30.09,North,0,4.0,6.3,30,0.00,,,0.06,WUHU216HW,2013-07-02 19:32:00,
2013-07-02 14:37:00,87.7,53.2,30.09,WNW,293,5.8,6.3,31,0.00,,,0.06,WUHU216HW,2013-07-02 19:37:00,
2013-07-02 14:42:00,87.5,52.3,30.09,SSE,158,2.7,5.8,30,0.00,,,0.06,WUHU216HW,2013-07-02 19:42:00,
2013-07-02 14:47:00,86.8,52.5,30.09,ENE,68,4.0,5.6,31,0.00,,,0.06,WUHU216HW,2013-07-02 19:47:00,
2013-07-02 14:52:00,86.4,52.2,30.09,NE,45,6.3,6.9,31,0.00,,,0.06,WUHU216HW,2013-07-02 19:52:00,
2013-07-02 14:57:00,86.4,52.2,30.09,North,0,2.0,6.9,31,0.00,,,0.06,WUHU216HW,2013-07-02 19:57:00,
2013-07-02 15:02:00,86.4,52.2,30.08,ENE,68,1.1,5.6,31,0.00,,,0.06,WUHU216HW,2013-07-02 20:02:00,
2013-07-02 15:07:00,86.0,52.8,30.08,East,90,3.1,5.4,32,0.00,,,0.06,WUHU216HW,2013-07-02 20:07:00,
2013-07-02 15:12:00,86.2,52.8,30.08,NNW,338,6.5,9.2,32,0.00,,,0.06,WUHU216HW,2013-07-02 20:12:00,
2013-07-02 15:17:00,87.1,52.0,30.08,NNW,338,1.8,9.2,30,0.00,,,0.06,WUHU216HW,2013-07-02 20:17:00,
2013-07-02 15:22:00,86.6,50.5,30.08,ESE,113,3.8,7.6,29,0.00,,,0.06,WUHU216HW,2013-07-02 20:22:00,
2013-07-02 15:27:00,86.4,52.2,30.08,North,0,4.0,6.9,31,0.00,,,0.06,WUHU216HW,2013-07-02 20:27:00,
2013-07-02 15:32:00,86.9,50.8,30.08,North,0,4.0,7.6,29,0.00,,,0.06,WUHU216HW,2013-07-02 20:32:00,
2013-07-02 15:37:00,87.1,52.0,30.08,NW,315,4.3,7.6,30,0.00,,,0.06,WUHU216HW,2013-07-02 20:37:00,
2013-07-02 15:42:00,87.7,53.2,30.07,NW,315,9.8,9.8,31,0.00,,,0.06,WUHU216HW,2013-07-02 20:42:00,
2013-07-02 15:47:00,87.5,48.0,30.08,North,0,3.6,9.8,26,0.00,,,0.06,WUHU216HW,2013-07-02 20:47:00,
2013-07-02 15:52:00,86.8,50.6,30.07,East,90,1.8,6.9,29,0.00,,,0.06,WUHU216HW,2013-07-02 20:52:00,
2013-07-02 15:57:00,87.3,52.1,30.07,NNE,23,7.4,7.4,30,0.00,,,0.06,WUHU216HW,2013-07-02 20:57:00,
2013-07-02 16:02:00,87.3,51.0,30.07,NNE,23,6.9,7.4,29,0.00,,,0.06,WUHU216HW,2013-07-02 21:02:00,
2013-07-02 16:07:00,86.8,50.6,30.07,NNW,338,7.6,7.8,29,0.00,,,0.06,WUHU216HW,2013-07-02 21:07:00,
2013-07-02 16:12:00,86.6,50.5,30.07,NE,45,3.6,7.8,29,0.00,,,0.06,WUHU216HW,2013-07-02 21:12:00,
2013-07-02 16:17:00,86.8,51.7,30.07,North,0,2.5,7.6,30,0.00,,,0.06,WUHU216HW,2013-07-02 21:17:00,
2013-07-02 16:22:00,86.9,50.8,30.06,ENE,68,6.9,6.9,29,0.00,,,0.06,WUHU216HW,2013-07-02 21:22:00,
2013-07-02 16:27:00,86.6,50.5,30.07,North,0,3.4,6.9,29,0.00,,,0.06,WUHU216HW,2013-07-02 21:27:00,
2013-07-02 16:32:00,86.2,50.2,30.06,NW,315,4.0,6.5,29,0.00,,,0.06,WUHU216HW,2013-07-02 21:32:00,
2013-07-02 16:37:00,86.6,50.5,30.06,NE,45,5.6,6.3,29,0.00,,,0.06,WUHU216HW,2013-07-02 21:37:00,
2013-07-02 16:42:00,86.6,50.5,30.06,North,0,4.7,5.6,29,0.00,,,0.06,WUHU216HW,2013-07-02 21:42:00,
2013-07-02 16:47:00,86.8,49.6,30.06,NE,45,3.6,5.8,28,0.00,,,0.06,WUHU216HW,2013-07-02 21:47:00,
2013-07-02 16:52:00,86.8,50.6,30.06,NNE,23,4.7,5.8,29,0.00,,,0.06,WUHU216HW,2013-07-02 21:52:00,
2013-07-02 16:57:00,87.1,51.0,30.06,NE,45,4.7,7.4,29,0.00,,,0.06,WUHU216HW,2013-07-02 21:57:00,
2013-07-02 17:02:00,87.1,48.8,30.06,NNE,23,3.1,7.4,27,0.00,,,0.06,WUHU216HW,2013-07-02 22:02:00,
2013-07-02 17:07:00,86.9,50.8,30.06,NE,45,1.8,6.3,29,0.00,,,0.06,WUHU216HW,2013-07-02 22:07:00,
2013-07-02 17:12:00,86.9,49.7,30.05,North,0,7.8,7.8,28,0.00,,,0.06,WUHU216HW,2013-07-02 22:12:00,
2013-07-02 17:17:00,86.8,47.4,30.05,East,90,2.0,7.8,26,0.00,,,0.06,WUHU216HW,2013-07-02 22:17:00,
2013-07-02 17:22:00,86.8,49.6,30.05,NNW,338,3.8,6.3,28,0.00,,,0.06,WUHU216HW,2013-07-02 22:22:00,
2013-07-02 17:27:00,86.8,49.6,30.05,NNW,338,4.3,7.2,28,0.00,,,0.06,WUHU216HW,2013-07-02 22:27:00,
2013-07-02 17:32:00,87.1,49.9,30.05,NNW,338,4.7,7.2,28,0.00,,,0.06,WUHU216HW,2013-07-02 22:32:00,
2013-07-02 17:37:00,87.1,47.7,30.05,North,0,5.8,6.3,26,0.00,,,0.06,WUHU216HW,2013-07-02 22:37:00,
2013-07-02 17:42:00,86.9,46.5,30.05,North,0,3.1,7.2,25,0.00,,,0.06,WUHU216HW,2013-07-02 22:42:00,
2013-07-02 17:47:00,86.8,46.4,30.05,NNE,23,5.4,7.2,25,0.00,,,0.06,WUHU216HW,2013-07-02 22:47:00,
2013-07-02 17:52:00,86.9,46.5,30.05,NE,45,3.4,6.3,25,0.00,,,0.06,WUHU216HW,2013-07-02 22:52:00,
2013-07-02 17:57:00,86.8,46.4,30.04,NNE,23,9.4,9.4,25,0.00,,,0.06,WUHU216HW,2013-07-02 22:57:00,
2013-07-02 18:02:00,86.8,46.4,30.05,NNW,338,3.1,9.4,25,0.00,,,0.06,WUHU216HW,2013-07-02 23:02:00,
2013-07-02 18:07:00,86.6,46.2,30.04,NNE,23,1.6,4.7,25,0.00,,,0.06,WUHU216HW,2013-07-02 23:07:00,
2013-07-02 18:12:00,86.6,47.3,30.04,ENE,68,1.8,4.7,26,0.00,,,0.06,WUHU216HW,2013-07-02 23:12:00,
2013-07-02 18:17:00,86.4,49.2,30.05,SE,135,2.7,5.6,28,0.00,,,0.06,WUHU216HW,2013-07-02 23:17:00,
2013-07-02 18:22:00,86.4,46.0,30.04,NNW,338,5.4,5.6,25,0.00,,,0.06,WUHU216HW,2013-07-02 23:22:00,
2013-07-02 18:27:00,86.4,44.9,30.04,East,90,3.8,5.6,24,0.00,,,0.06,WUHU216HW,2013-07-02 23:27:00,
2013-07-02 18:29:00,86.2,45.9,30.05,South,180,3.4,5.6,25,0.00,,,0.06,WUHU216HW,2013-07-02 23:29:00,
2013-07-02 18:34:00,85.9,45.5,30.04,ENE,68,2.0,5.6,25,0.00,,,0.06,WUHU216HW,2013-07-02 23:34:00,
2013-07-02 18:39:00,85.7,46.5,30.04,North,0,2.9,5.1,26,0.00,,,0.06,WUHU216HW,2013-07-02 23:39:00,
2013-07-02 18:44:00,85.7,48.6,30.05,WNW,293,1.1,5.1,28,0.00,,,0.06,WUHU216HW,2013-07-02 23:44:00,
2013-07-02 18:49:00,85.7,48.6,30.05,North,0,5.8,5.8,28,0.00,,,0.06,WUHU216HW,2013-07-02 23:49:00,
2013-07-02 18:54:00,85.7,46.5,30.05,NNW,338,1.3,5.8,26,0.00,,,0.06,WUHU216HW,2013-07-02 23:54:00,
2013-07-02 18:59:00,85.5,48.5,30.05,NNE,23,5.4,5.4,28,0.00,,,0.06,WUHU216HW,2013-07-02 23:59:00,
2013-07-02 19:01:00,85.5,48.5,30.05,NNE,23,4.0,5.4,28,0.00,,,0.06,WUHU216HW,2013-07-03 00:01:00,
2013-07-02 19:06:00,85.3,48.3,30.05,North,0,2.9,5.4,28,0.00,,,0.06,WUHU216HW,2013-07-03 00:06:00,
2013-07-02 19:11:00,85.3,47.3,30.05,NNW,338,4.3,4.3,27,0.00,,,0.06,WUHU216HW,2013-07-03 00:11:00,
2013-07-02 19:16:00,85.1,48.2,30.05,NNW,338,2.5,4.3,28,0.00,,,0.06,WUHU216HW,2013-07-03 00:16:00,
2013-07-02 19:21:00,85.0,48.0,30.05,NW,315,3.4,4.0,28,0.00,,,0.06,WUHU216HW,2013-07-03 00:21:00,
2013-07-02 19:23:00,85.0,48.0,30.05,ESE,113,2.0,3.4,28,0.00,,,0.06,WUHU216HW,2013-07-03 00:23:00,
2013-07-02 19:24:00,85.0,48.0,30.05,North,0,1.6,3.4,28,0.00,,,0.06,WUHU216HW,2013-07-03 00:24:00,
2013-07-02 19:28:00,85.0,49.1,30.05,ENE,68,1.6,3.4,29,0.00,,,0.06,WUHU216HW,2013-07-03 00:28:00,
2013-07-02 19:33:00,84.8,49.0,30.05,NNE,23,0.2,3.4,29,0.00,,,0.06,WUHU216HW,2013-07-03 00:33:00,
2013-07-02 19:38:00,84.6,49.9,30.05,NE,45,1.1,3.4,30,0.00,,,0.06,WUHU216HW,2013-07-03 00:38:00,
2013-07-02 19:43:00,84.6,49.9,30.05,NE,45,1.3,3.1,30,0.00,,,0.06,WUHU216HW,2013-07-03 00:43:00,
2013-07-02 19:48:00,84.4,49.7,30.05,East,90,1.8,3.1,30,0.00,,,0.06,WUHU216HW,2013-07-03 00:48:00,
2013-07-02 19:53:00,84.2,49.5,30.05,North,0,2.2,2.2,30,0.00,,,0.06,WUHU216HW,2013-07-03 00:53:00,
2013-07-02 19:58:00,84.2,49.5,30.05,NNE,23,0.0,2.2,30,0.00,,,0.06,WUHU216HW,2013-07-03 00:58:00,
2013-07-02 20:00:00,84.2,49.5,30.05,NNE,23,0.9,2.2,30,0.00,,,0.06,WUHU216HW,2013-07-03 01:00:00,
2013-07-02 20:04:00,83.9,50.0,30.05,North,0,0.9,1.1,31,0.00,,,0.06,WUHU216HW,2013-07-03 01:04:00,
2013-07-02 20:09:00,83.9,50.0,30.05,ENE,68,0.4,1.3,31,0.00,,,0.06,WUHU216HW,2013-07-03 01:09:00,
2013-07-02 20:14:00,83.7,50.6,30.05,NNE,23,0.0,1.3,32,0.00,,,0.06,WUHU216HW,2013-07-03 01:14:00,
2013-07-02 20:19:00,83.5,50.4,30.05,North,0,1.1,1.1,32,0.00,,,0.06,WUHU216HW,2013-07-03 01:19:00,
2013-07-02 20:24:00,83.3,50.3,30.05,North,0,0.4,1.6,32,0.00,,,0.06,WUHU216HW,2013-07-03 01:24:00,
2013-07-02 20:26:00,83.2,50.1,30.05,NNW,338,1.3,1.6,32,0.00,,,0.06,WUHU216HW,2013-07-03 01:26:00,
2013-07-02 20:31:00,83.0,50.0,30.05,North,0,1.1,1.8,32,0.00,,,0.06,WUHU216HW,2013-07-03 01:31:00,
2013-07-02 20:36:00,82.4,50.2,30.05,North,0,1.1,2.5,33,0.00,,,0.06,WUHU216HW,2013-07-03 01:36:00,
2013-07-02 20:41:00,82.4,50.2,30.06,NNW,338,0.0,2.5,33,0.00,,,0.06,WUHU216HW,2013-07-03 01:41:00,
2013-07-02 20:46:00,82.1,50.0,30.06,NNW,338,0.0,0.7,33,0.00,,,0.06,WUHU216HW,2013-07-03 01:46:00,
2013-07-02 20:49:00,82.1,50.0,30.06,NNW,338,0.0,0.7,33,0.00,,,0.06,WUHU216HW,2013-07-03 01:49:00,
2013-07-02 20:50:00,82.1,50.8,30.06,NNW,338,0.0,0.4,34,0.00,,,0.06,WUHU216HW,2013-07-03 01:50:00,
2013-07-02 20:55:00,81.7,50.4,30.06,North,0,0.0,0.0,34,0.00,,,0.06,WUHU216HW,2013-07-03 01:55:00,
2013-07-02 21:00:00,81.5,50.3,30.06,North,0,0.0,0.0,34,0.00,,,0.06,WUHU216HW,2013-07-03 02:00:00,
2013-07-02 21:05:00,81.4,51.0,30.06,North,0,0.0,0.0,35,0.00,,,0.06,WUHU216HW,2013-07-03 02:05:00,
2013-07-02 21:10:00,81.2,51.6,30.06,WNW,293,0.0,0.0,36,0.00,,,0.06,WUHU216HW,2013-07-03 02:10:00,
2013-07-02 21:15:00,80.8,52.0,30.06,WNW,293,0.7,0.7,37,0.00,,,0.06,WUHU216HW,2013-07-03 02:15:00,
2013-07-02 21:20:00,80.6,52.7,30.06,NW,315,0.4,0.9,38,0.00,,,0.06,WUHU216HW,2013-07-03 02:20:00,
2013-07-02 21:25:00,80.3,52.3,30.06,NW,315,0.0,0.9,38,0.00,,,0.06,WUHU216HW,2013-07-03 02:25:00,
2013-07-02 21:31:00,79.9,52.7,30.06,NW,315,0.0,0.4,39,0.00,,,0.06,WUHU216HW,2013-07-03 02:31:00,
2013-07-02 21:32:00,79.7,52.6,30.06,NW,315,0.0,0.0,39,0.00,,,0.06,WUHU216HW,2013-07-03 02:32:00,
2013-07-02 21:37:00,79.0,52.8,30.06,NW,315,0.0,0.0,40,0.00,,,0.06,WUHU216HW,2013-07-03 02:37:00,
2013-07-02 21:42:00,78.5,52.8,30.07,NW,315,0.0,0.0,41,0.00,,,0.06,WUHU216HW,2013-07-03 02:42:00,
2013-07-02 21:46:00,77.9,52.4,30.07,NW,315,0.0,0.0,41,0.00,,,0.06,WUHU216HW,2013-07-03 02:46:00,
2013-07-02 21:52:00,77.4,52.5,30.07,NW,315,0.0,0.0,42,0.00,,,0.06,WUHU216HW,2013-07-03 02:52:00,
2013-07-02 21:57:00,77.0,52.2,30.07,NW,315,0.0,0.0,42,0.00,,,0.06,WUHU216HW,2013-07-03 02:57:00,
2013-07-02 22:02:00,76.9,52.0,30.07,NW,315,0.0,0.0,42,0.00,,,0.06,WUHU216HW,2013-07-03 03:02:00,
2013-07-02 22:07:00,76.5,52.3,30.08,South,180,0.9,2.0,43,0.00,,,0.06,WUHU216HW,2013-07-03 03:07:00,
2013-07-02 22:12:00,76.3,52.7,30.08,WSW,248,0.0,2.0,44,0.00,,,0.06,WUHU216HW,2013-07-03 03:12:00,
2013-07-02 22:17:00,76.1,53.2,30.08,WNW,293,0.0,0.4,45,0.00,,,0.06,WUHU216HW,2013-07-03 03:17:00,
2013-07-02 22:22:00,76.1,53.2,30.08,WNW,293,1.1,1.3,45,0.00,,,0.06,WUHU216HW,2013-07-03 03:22:00,
2013-07-02 22:28:00,76.0,53.6,30.08,WNW,293,0.0,1.3,46,0.00,,,0.06,WUHU216HW,2013-07-03 03:28:00,
2013-07-02 22:33:00,76.0,53.6,30.08,WNW,293,1.1,1.1,46,0.00,,,0.06,WUHU216HW,2013-07-03 03:33:00,
2013-07-02 22:35:00,76.0,53.6,30.08,WNW,293,0.0,1.1,46,0.00,,,0.06,WUHU216HW,2013-07-03 03:35:00,
2013-07-02 22:39:00,75.6,53.9,30.08,WNW,293,0.0,1.1,47,0.00,,,0.06,WUHU216HW,2013-07-03 03:39:00,
2013-07-02 22:44:00,75.1,54.0,30.08,WNW,293,0.0,0.0,48,0.00,,,0.06,WUHU216HW,2013-07-03 03:44:00,
2013-07-02 22:49:00,74.7,53.7,30.09,WNW,293,0.0,0.0,48,0.00,,,0.06,WUHU216HW,2013-07-03 03:49:00,
2013-07-02 22:54:00,74.5,54.1,30.09,WNW,293,0.0,0.0,49,0.00,,,0.06,WUHU216HW,2013-07-03 03:54:00,
2013-07-02 22:59:00,74.2,53.7,30.09,WNW,293,0.0,0.0,49,0.00,,,0.06,WUHU216HW,2013-07-03 03:59:00,
2013-07-02 23:00:00,74.2,53.7,30.09,WNW,293,0.0,0.0,49,0.00,,,0.06,WUHU216HW,2013-07-03 04:00:00,
2013-07-02 23:01:00,74.0,53.6,30.09,WNW,293,0.0,0.0,49,0.00,,,0.06,WUHU216HW,2013-07-03 04:01:00,
2013-07-02 23:03:00,73.8,54.0,30.09,WNW,293,0.0,0.0,50,0.00,,,0.06,WUHU216HW,2013-07-03 04:03:00,
2013-07-02 23:04:00,73.8,54.0,30.09,WNW,293,0.0,0.0,50,0.00,,,0.06,WUHU216HW,2013-07-03 04:04:00,